This demonstration page uses our WeatherBlox Daily Observations layout. Learn more.

41.55636, -103.73856

Hourly Observations for January 16, 2019

Temp ( °F °C ) Dew Point ( °F °C ) Humidity (%) Winds ( mph kmh ) Pressure ( in mb ) Visibility ( mi km ) Precip ( " mm )
12:58 am 00:58 Mostly Clear 37 2.5 22 -5.5 56 56 N 6 9 30.16 1021 10 16.0934 N/A
1:58 am 01:58 Mostly Clear 35 1.4 20 -6.7 55 55 E 8 13 30.19 1022 10 16.0934 N/A
2:58 am 02:58 Clear 33 0.6 20 -6.9 58 58 SE 7 11 30.18 1022 10 16.0934 N/A
3:58 am 03:58 Clear 32 -0.2 19 -7.4 59 59 S 9 15 30.16 1021 10 16.0934 N/A
4:58 am 04:58 Clear 28 -2.1 19 -7.5 67 67 S 8 13 30.15 1021 10 16.0934 N/A
5:58 am 05:58 Clear 28 -2.1 20 -6.6 72 72 S 10 17 30.12 1020 10 16.0934 N/A
6:58 am 06:58 Mostly Cloudy 30 -1.2 20 -6.5 68 68 S 13 20 30.08 1019 10 16.0934 N/A
7:58 am 07:58 Mostly Cloudy 29 -1.9 20 -6.4 72 72 S 12 19 30.06 1018 10 16.0934 N/A
8:58 am 08:58 Cloudy 31 -0.4 20 -6.6 63 63 S 13 20 30.03 1017 10 16.0934 N/A
9:58 am 09:58 Mostly Cloudy 31 -0.8 20 -6.4 66 66 S 10 17 30.02 1017 10 16.0934 N/A
10:58 am 10:58 Cloudy 32 -0.1 19 -7.3 59 59 SSW 8 13 29.99 1016 10 16.0934 N/A
11:58 am 11:58 Mostly Cloudy 31 -0.7 18 -7.7 59 59 S 15 24 30.01 1016 10 16.0934 N/A
12:58 pm 12:58 Mostly Cloudy 32 -0.1 18 -7.8 57 57 SSW 9 15 30.01 1016 10 16.0934 N/A
1:58 pm 13:58 Cloudy 32 0.2 18 -7.8 55 55 S 7 11 30 1016 10 16.0934 N/A
2:58 pm 14:58 Mostly Cloudy 33 0.3 17 -8.4 52 52 S 8 13 30.01 1016 10 16.0934 N/A
3:58 pm 15:58 Mostly Cloudy 34 1 18 -8 51 51 SSW 10 17 30.01 1016 10 16.0934 N/A
4:58 pm 16:58 Mostly Cloudy 36 2.3 18 -7.7 48 48 SSW 8 13 30.03 1017 10 16.0934 N/A
5:58 pm 17:58 Mostly Cloudy 37 2.8 20 -6.5 51 51 W 5 7 30.01 1016 10 16.0934 N/A
6:58 pm 18:58 Mostly Cloudy 39 3.7 21 -6 50 50 N 7 11 29.99 1016 10 16.0934 N/A
7:58 pm 19:58 Mostly Cloudy 41 4.8 26 -3.3 56 56 WNW 16 26 29.95 1014 10 16.0934 N/A
8:58 pm 20:58 Cloudy with Light Rain 36 2.1 33 0.3 88 88 WNW 16 26 29.99 1016 6 9.65604 N/A
9:58 pm 21:58 Cloudy with Light Rain 36 2.2 32 0.2 87 87 NW 18 30 30 1016 9 14.48406 0.02 0.508
10:58 pm 22:58 Mostly Sunny 36 2.4 30 -1.2 77 77 NW 14 22 30.01 1016 10 16.0934 N/A
11:58 pm 23:58 Partly Cloudy 37 2.6 29 -1.8 73 73 WNW 20 31 30.01 1016 10 16.0934 0 0

Powered by AerisWeather